{"data":{"norad_id":62530,"intl_designator":"2025-004V","name":"STARLINK-32791","alt_names":[],"object_type":"PAYLOAD","status":"ACTIVE","operator":null,"country":"US","launch_date":"2025-01-08","launch_site_code":"AFETR","launch_vehicle":null,"mission":null,"orbit_class":"UNKNOWN","rcs_meters":null,"size_class":null,"mass_kg":null,"dimensions":null,"purposes":["comms"],"wikipedia_slug":null,"has_3d_model":false,"image_url":null,"decayed_at":null,"tle_current":{"epoch":"2026-09-21T05:20:04.014816Z","epoch_age_seconds":108947,"freshness":"FRESH","line1":"1 62530U 25004V   26264.22226869  .00016649  00000+0  61265-3 0  9992","line2":"2 62530  43.0002 195.5290 0001856 267.9374  92.1265 15.27607475 96369","mean_motion":15.27607475,"eccentricity":0.0001856,"inclination_deg":43.0002,"raan_deg":195.529,"arg_perigee_deg":267.9374,"mean_anomaly_deg":92.1265,"bstar":0.00061265,"rev_number":9636,"period_min":94.265053265728,"perigee_km":481.69340636831,"apogee_km":484.24024810898,"semimajor_km":6861.1038272386,"source":"CELESTRAK","updated_at":"2026-09-22T09:00:49.625361Z"}}}